Latest Weather Observations for Truscott

IDW60801

Issued at 11:03 am WST Sunday 28 November 2021 (issued every 10 minutes, with the page automatically refreshed every 10 minutes)

About weather observations | Map of weather stations | Latest weather observations for WA | Other Formats
Station Details ID: 001020 Name: TRUSCOTT Lat: -14.09 Lon: 126.39 Height: 51.0 m
Data from the previous 72 hours. | See also: Recent months at Truscott
Date/Time
WST
Temp
°C
App
Temp
°C
Dew
Point
°C
Rel
Hum
%
Delta-T
°C
Wind Press
QNH
hPa
Press
MSL
hPa
Rain since
9am
mm
Dir  Spd
km/h
Gust
km/h
Spd
kts
Gust
kts
28/11:00am 33.9 34.0 18.4 40 10.1 E 15 22 8 12 1009.0 1008.6 0.0
28/10:30am 33.6 34.1 19.3 43 9.4 ENE 15 24 8 13 1009.3 1008.9 0.0
28/10:00am 33.1 34.3 19.9 45 8.8 ENE 13 20 7 11 1009.8 1009.4 0.0
28/09:30am 32.7 33.4 19.6 46 8.6 ENE 15 22 8 12 1010.0 1009.6 0.0
28/09:00am 32.9 34.1 19.0 43 9.1 E 11 19 6 10 1010.0 1009.6 8.6
28/08:30am 32.3 34.4 20.2 48 8.0 ESE 9 13 5 7 1010.0 1009.6 8.6
28/08:00am 31.2 33.1 20.5 53 7.1 ESE 11 15 6 8 1010.0 1009.6 8.6
28/07:30am 30.2 32.5 21.3 59 6.0 SE 11 17 6 9 1009.9 1009.5 8.6
28/07:00am 29.5 32.8 22.5 66 4.8 SSE 9 13 5 7 1009.7 1009.3 8.6
28/06:30am 28.3 32.4 23.0 73 3.6 SSE 6 7 3 4 1009.5 1009.1 8.6
28/06:00am 27.5 31.5 23.1 77 3.0 SSE 7 11 4 6 1009.3 1008.9 8.6
28/05:30am 26.5 30.6 23.2 82 2.3 SSE 7 9 4 5 1008.9 1008.5 8.6
28/05:00am 25.4 29.7 23.3 88 1.4 S 6 7 3 4 1008.4 1008.0 8.6
28/04:30am 25.3 29.8 23.9 92 1.0 SSE 7 9 4 5 1008.1 1007.7 8.6
28/04:00am 25.3 31.6 24.8 97 0.3 CALM 0 6 0 3 1007.5 1007.1 8.6
28/03:30am 25.4 30.4 24.5 95 0.6 S 6 7 3 4 1007.4 1007.0 8.6
28/03:00am 25.6 30.4 24.2 92 1.0 SE 6 7 3 4 1007.4 1007.0 8.6
28/02:30am 25.1 30.0 24.4 96 0.5 ESE 6 7 3 4 1007.1 1006.7 8.6
28/02:00am 25.3 30.4 24.6 96 0.5 ESE 6 9 3 5 1007.2 1006.8 8.6
28/01:30am 25.5 31.5 24.3 93 0.8 CALM 0 0 0 0 1007.2 1006.8 8.6
28/01:00am 25.5 32.1 25.2 98 0.2 CALM 0 0 0 0 1007.2 1006.8 8.6
28/12:30am 25.0 31.3 24.8 99 0.1 CALM 0 0 0 0 1007.4 1007.0 8.6
28/12:00am 25.2 31.5 24.7 97 0.3 CALM 0 0 0 0 1008.1 1007.7 8.6
 
Date/Time
WST
Temp
°C
App
Temp
°C
Dew
Point
°C
Rel
Hum
%
Delta-T
°C
Wind Press
QNH
hPa
Press
MSL
hPa
Rain since
9am
mm
Dir  Spd
km/h
Gust
km/h
Spd
kts
Gust
kts
27/11:30pm 25.6 32.1 25.1 97 0.3 CALM 0 0 0 0 1008.6 1008.2 8.6
27/11:00pm 25.7 31.7 24.3 92 1.0 CALM 0 4 0 2 1008.9 1008.5 8.6
27/10:30pm 26.6 30.7 23.9 85 1.9 SSW 9 13 5 7 1009.6 1009.2 8.6
27/10:00pm 26.5 30.4 23.6 84 2.0 SSW 9 11 5 6 1009.8 1009.4 8.6
27/09:30pm 25.9 31.5 24.9 94 0.7 S 4 7 2 4 1009.6 1009.2 8.6
27/09:00pm 26.1 32.0 24.1 89 1.4 CALM 0 0 0 0 1009.3 1008.9 8.6
27/08:30pm 26.8 31.3 23.7 83 2.1 ENE 6 6 3 3 1009.0 1008.6 8.6
27/08:00pm 26.9 31.8 24.4 86 1.7 NE 6 9 3 5 1008.7 1008.3 8.6
27/07:30pm 26.9 31.7 24.2 85 1.9 ENE 6 7 3 4 1009.0 1008.6 8.6
27/07:00pm 27.3 32.1 24.2 83 2.1 NE 6 7 3 4 1008.6 1008.2 8.6
27/06:30pm 27.7 32.0 23.7 79 2.8 NE 7 11 4 6 1008.0 1007.6 8.6
27/06:00pm 28.2 32.1 23.6 76 3.2 NE 9 13 5 7 1007.8 1007.4 8.6
27/05:30pm 28.8 31.9 23.5 73 3.6 NE 13 20 7 11 1007.3 1006.9 8.6
27/05:00pm 29.5 32.8 23.9 72 3.9 NE 13 22 7 12 1006.7 1006.3 8.6
27/04:30pm 29.7 33.4 24.6 74 3.6 NNE 13 24 7 13 1006.6 1006.2 8.6
27/04:00pm 29.2 33.9 25.0 78 3.0 NNE 9 17 5 9 1006.4 1006.0 8.6
27/03:30pm 27.4 33.0 25.8 91 1.1 ENE 7 11 4 6 1006.5 1006.1 8.6
27/03:00pm 26.8 32.5 25.9 95 0.6 WSW 7 11 4 6 1006.8 1006.4 8.6
27/02:30pm 26.3 33.1 25.6 96 0.5 CALM 0 0 0 0 1007.0 1006.6 8.6
27/02:24pm 26.3 32.6 25.4 95 0.6 NW 2 6 1 3 1007.0 1006.6 8.6
27/02:00pm 26.2 32.3 25.0 93 0.8 SE 2 7 1 4 1007.2 1006.8 8.6
27/01:30pm 25.9 31.2 24.9 94 0.7 ESE 6 9 3 5 1007.8 1007.4 8.4
27/01:20pm 25.7 30.3 24.8 95 0.6 ESE 9 11 5 6 1007.6 1007.2 8.4
27/01:00pm 25.5 28.7 23.7 90 1.2 E 13 24 7 13 1007.7 1007.3 7.2
27/12:56pm 25.6 28.8 23.7 89 1.3 E 13 24 7 13 1007.6 1007.2 6.4
27/12:50pm 25.7 29.0 24.5 93 0.8 E 15 26 8 14 1007.9 1007.5 4.4
27/12:30pm 26.2 28.2 24.6 91 1.1 E 22 35 12 19 1007.9 1007.5 3.0
27/12:25pm 26.4 27.7 24.1 87 1.6 E 24 39 13 21 1008.0 1007.6 2.0
27/12:15pm 29.3 31.2 23.5 71 4.0 NE 19 37 10 20 1007.8 1007.4 1.8
27/12:07pm 30.9 34.0 22.8 62 5.6 N 11 17 6 9 1007.6 1007.2 1.8
27/12:00pm 30.8 34.5 23.2 64 5.2 N 9 13 5 7 1007.6 1007.2 1.8
27/11:49am 29.7 32.8 23.6 69 4.2 N 13 26 7 14 1007.7 1007.3 1.8
27/11:30am 28.5 32.2 24.5 79 2.8 NNW 13 19 7 10 1008.1 1007.7 1.8
27/11:08am 27.5 30.7 23.7 80 2.6 NNW 13 24 7 13 1008.5 1008.1 1.8
27/11:00am 28.0 31.0 24.0 79 2.8 NNW 15 28 8 15 1008.6 1008.2 1.8
27/10:50am 28.5 32.7 24.7 80 2.7 N 11 17 6 9 1008.6 1008.2 1.6
27/10:30am 31.3 35.0 23.9 64 5.2 NNW 11 15 6 8 1008.7 1008.3 0.0
27/10:00am 32.3 35.1 23.0 58 6.4 ENE 13 20 7 11 1009.0 1008.6 0.0
27/09:30am 32.8 36.0 22.3 54 7.2 SE 9 13 5 7 1009.3 1008.9 0.0
27/09:00am 31.5 35.2 22.2 57 6.3 W 6 9 3 5 1009.5 1009.1 13.8
27/08:30am 31.7 35.9 23.2 60 5.9 SE 6 11 3 6 1009.7 1009.3 13.8
27/08:00am 31.0 35.5 23.6 64 5.1 SE 6 9 3 5 1009.6 1009.2 13.8
27/07:30am 30.7 34.5 23.4 65 5.0 SSE 9 13 5 7 1009.5 1009.1 13.8
27/07:00am 30.5 35.3 24.4 70 4.3 SSW 7 11 4 6 1009.3 1008.9 13.8
27/06:30am 29.4 33.0 23.8 72 3.9 SSE 11 15 6 8 1009.1 1008.7 13.8
27/06:00am 28.4 32.0 23.1 73 3.6 S 9 13 5 7 1008.7 1008.3 13.8
27/05:30am 26.9 31.1 23.4 81 2.4 S 7 9 4 5 1008.0 1007.6 13.8
27/05:00am 26.3 30.6 23.6 85 1.9 SSE 7 11 4 6 1007.7 1007.3 13.8
27/04:30am 27.6 32.7 24.6 84 2.1 WSW 6 7 3 4 1007.2 1006.8 13.8
27/04:00am 26.6 33.1 25.0 91 1.1 CALM 0 6 0 3 1006.9 1006.5 13.8
27/03:30am 26.4 32.6 24.6 90 1.3 CALM 0 0 0 0 1006.8 1006.4 13.8
27/03:00am 26.8 33.0 24.6 88 1.5 CALM 0 0 0 0 1006.5 1006.1 13.8
27/02:30am 27.3 32.9 24.2 83 2.1 SSW 2 7 1 4 1006.5 1006.1 13.8
27/02:00am 27.0 31.3 23.3 80 2.5 NW 6 7 3 4 1006.4 1006.0 13.8
27/01:30am 26.5 30.9 23.4 83 2.1 N 6 7 3 4 1006.5 1006.1 13.8
27/01:00am 26.3 31.8 23.4 84 2.0 CALM 0 0 0 0 1006.6 1006.2 13.8
27/12:30am 26.8 31.6 22.8 79 2.7 SW 2 7 1 4 1007.1 1006.7 13.8
27/12:00am 26.8 32.1 23.1 80 2.5 CALM 0 0 0 0 1007.8 1007.4 13.8
 
Date/Time
WST
Temp
°C
App
Temp
°C
Dew
Point
°C
Rel
Hum
%
Delta-T
°C
Wind Press
QNH
hPa
Press
MSL
hPa
Rain since
9am
mm
Dir  Spd
km/h
Gust
km/h
Spd
kts
Gust
kts
26/11:30pm 27.2 31.8 22.4 75 3.2 S 2 7 1 4 1008.5 1008.1 13.8
26/11:00pm 27.7 30.4 22.2 72 3.7 SSW 11 15 6 8 1009.0 1008.6 13.8
26/10:30pm 27.8 30.3 21.8 70 4.0 SSW 11 17 6 9 1009.4 1009.0 13.8
26/10:00pm 28.1 31.4 23.2 74 3.4 SW 11 17 6 9 1009.8 1009.4 13.8
26/09:30pm 28.8 33.3 23.9 75 3.4 SSW 7 11 4 6 1009.6 1009.2 13.8
26/09:00pm 28.5 35.2 25.9 86 1.8 SSW 2 7 1 4 1009.2 1008.8 13.8
26/08:30pm 28.3 34.7 24.9 82 2.4 CALM 0 0 0 0 1009.0 1008.6 13.8
26/08:00pm 29.0 34.3 24.3 76 3.3 N 4 7 2 4 1008.3 1007.9 13.8
26/07:30pm 29.3 33.6 23.7 72 3.9 N 7 11 4 6 1007.2 1006.8 13.8
26/07:00pm 29.2 33.4 23.4 71 4.0 N 7 9 4 5 1006.8 1006.4 13.8
26/06:30pm 29.3 33.9 24.2 74 3.5 NW 7 11 4 6 1006.7 1006.3 13.8
26/06:00pm 29.7 34.2 23.6 69 4.2 NNW 6 11 3 6 1006.4 1006.0 13.8
26/05:30pm 30.2 34.7 23.9 69 4.4 NNW 7 11 4 6 1006.1 1005.7 13.8
26/05:00pm 30.8 34.7 24.2 68 4.6 NNW 11 15 6 8 1005.6 1005.2 13.8
26/04:30pm 31.3 34.3 22.6 60 6.0 N 11 17 6 9 1005.4 1005.0 13.8
26/04:00pm 32.0 34.9 22.4 57 6.6 NNE 11 15 6 8 1005.5 1005.1 13.8
26/03:30pm 31.8 34.3 23.1 60 6.0 NNW 15 24 8 13 1005.1 1004.6 13.8
26/03:00pm 32.3 35.1 24.3 62 5.6 NNW 17 24 9 13 1004.9 1004.4 13.8
26/02:30pm 31.2 34.0 23.0 61 5.6 NNW 13 20 7 11 1005.1 1004.6 13.8
26/02:00pm 32.8 36.9 24.0 60 6.2 NNE 9 17 5 9 1005.5 1005.1 13.8
26/01:50pm 32.4 35.8 23.4 59 6.2 NNE 11 17 6 9 1005.8 1005.4 13.8
26/01:40pm 32.0 34.7 23.5 60 5.9 N 15 24 8 13 1005.9 1005.5 13.8
26/01:38pm 31.9 35.0 24.2 63 5.4 NNW 15 24 8 13 1005.9 1005.5 13.8
26/01:30pm 32.3 35.7 24.6 64 5.4 NNW 15 22 8 12 1005.9 1005.5 13.8
26/01:20pm 31.6 34.0 23.7 63 5.5 N 17 24 9 13 1006.0 1005.6 13.8
26/01:00pm 32.4 36.0 25.0 65 5.2 NNW 15 24 8 13 1006.1 1005.7 13.8
26/12:30pm 31.8 35.0 24.4 65 5.2 NNW 15 24 8 13 1006.3 1005.9 13.8
26/12:00pm 32.2 36.2 23.7 61 5.9 N 9 17 5 9 1006.6 1006.2 13.8
26/11:30am 32.0 36.0 25.1 67 4.9 NW 13 20 7 11 1007.1 1006.7 13.8
26/11:00am 30.8 35.1 24.9 71 4.2 N 11 17 6 9 1007.6 1007.2 13.8
26/10:37am 27.9 31.9 23.1 75 3.3 NNW 7 13 4 7 1007.8 1007.4 13.6
26/10:30am 27.0 29.7 22.2 75 3.2 NNW 11 13 6 7 1008.0 1007.6 13.6
26/10:00am 26.1 29.2 23.6 86 1.7 NNW 13 22 7 12 1008.5 1008.1 9.4
26/09:49am 27.9 32.1 24.7 83 2.2 E 11 17 6 9 1008.7 1008.3 2.0
26/09:30am 32.0 36.4 23.8 62 5.7 N 7 13 4 7 1008.3 1007.9 0.0
26/09:00am 32.4 37.0 24.2 62 5.8 WNW 7 11 4 6 1008.2 1007.8 0.0
26/08:30am 31.8 35.9 23.9 63 5.5 W 9 13 5 7 1008.2 1007.8 0.0
26/08:00am 31.6 36.5 24.7 67 4.9 W 7 17 4 9 1007.9 1007.5 0.0
26/07:30am 31.0 35.4 24.4 68 4.6 W 9 15 5 8 1007.7 1007.3 0.0
26/07:00am 30.8 35.9 24.9 71 4.2 W 7 11 4 6 1007.6 1007.2 0.0
26/06:30am 30.4 36.2 25.2 74 3.7 S 4 7 2 4 1007.3 1006.9 0.0
26/06:00am 29.0 34.9 25.4 81 2.5 SSE 4 7 2 4 1007.2 1006.8 0.0
26/05:30am 27.5 34.3 25.5 89 1.4 CALM 0 0 0 0 1006.9 1006.5 0.0
26/05:00am 26.8 32.5 25.0 90 1.3 SW 4 7 2 4 1006.5 1006.1 0.0
26/04:30am 27.2 33.7 25.0 88 1.5 CALM 0 0 0 0 1006.4 1006.0 0.0
26/04:00am 28.1 33.2 24.7 82 2.4 WSW 6 7 3 4 1006.3 1005.9 0.0
26/03:30am 28.2 33.2 24.8 82 2.4 WNW 7 7 4 4 1006.2 1005.8 0.0
26/03:00am 27.9 34.0 25.1 85 2.0 NW 2 7 1 4 1006.2 1005.8 0.0
26/02:30am 28.2 33.5 25.0 83 2.2 NNW 6 9 3 5 1006.1 1005.7 0.0
26/02:00am 28.4 34.0 24.8 81 2.5 NNW 4 7 2 4 1006.2 1005.8 0.0
26/01:30am 28.6 34.0 25.4 83 2.3 NNW 7 11 4 6 1006.2 1005.8 0.0
26/01:00am 28.4 34.1 25.6 85 2.0 NNW 6 7 3 4 1006.5 1006.1 0.0
26/12:30am 28.6 34.1 25.6 84 2.1 NW 7 9 4 5 1006.5 1006.1 0.0
26/12:00am 28.8 34.4 25.8 84 2.1 NW 7 9 4 5 1006.7 1006.3 0.0
 
Date/Time
WST
Temp
°C
App
Temp
°C
Dew
Point
°C
Rel
Hum
%
Delta-T
°C
Wind Press
QNH
hPa
Press
MSL
hPa
Rain since
9am
mm
Dir  Spd
km/h
Gust
km/h
Spd
kts
Gust
kts
25/11:30pm 29.0 34.8 26.0 84 2.1 NW 7 9 4 5 1007.0 1006.6 0.0
25/11:00pm 29.1 35.1 26.1 84 2.1 N 6 11 3 6 1007.3 1006.9 0.0
25/10:30pm 29.3 35.0 25.9 82 2.4 NNW 7 9 4 5 1007.6 1007.2 0.0
25/10:00pm 29.3 34.9 25.7 81 2.6 NNW 7 9 4 5 1007.6 1007.2 0.0
25/09:30pm 29.4 35.4 26.0 82 2.4 NW 6 13 3 7 1008.0 1007.6 0.0
25/09:00pm 29.1 34.9 24.0 74 3.5 CALM 0 0 0 0 1008.0 1007.6 0.0
25/08:30pm 29.2 33.9 23.9 73 3.7 NNE 6 9 3 5 1008.1 1007.7 0.0
25/08:00pm 29.5 33.0 22.2 65 5.0 S 7 9 4 5 1007.9 1007.5 0.0
25/07:30pm 29.6 33.6 22.8 67 4.6 SE 6 9 3 5 1007.4 1007.0 0.0
25/07:00pm 29.8 35.3 25.3 77 3.2 N 6 9 3 5 1006.9 1006.5 0.0
25/06:30pm 30.0 35.8 25.7 78 3.1 NNW 6 9 3 5 1006.8 1006.4 0.0
25/06:00pm 30.2 34.7 24.6 72 3.9 NNW 9 13 5 7 1006.4 1006.0 0.0
25/05:30pm 30.6 35.2 24.7 71 4.1 NW 9 15 5 8 1006.4 1006.0 0.0
25/05:00pm 30.7 34.8 24.6 70 4.3 NW 11 19 6 10 1005.8 1005.4 0.0
25/04:30pm 30.9 35.2 25.5 73 3.8 NNW 13 19 7 10 1005.0 1004.5 0.0
25/04:00pm 32.0 35.2 24.3 63 5.4 NNW 15 19 8 10 1004.6 1004.1 0.0
25/03:30pm 32.5 34.8 23.4 58 6.3 NNW 17 22 9 12 1004.6 1004.1 0.0
25/03:00pm 33.0 34.9 22.7 54 7.1 NNW 17 24 9 13 1004.7 1004.2 0.0
25/02:30pm 32.9 36.0 24.1 60 6.2 NW 15 20 8 11 1005.1 1004.6 0.0
25/02:00pm 32.0 36.1 25.8 69 4.4 NNW 15 20 8 11 1005.0 1004.5 0.0
25/01:51pm 31.1 35.3 25.4 71 4.0 NNW 13 20 7 11 1005.3 1004.8 0.0
25/01:30pm 31.4 35.5 25.7 71 4.1 NNW 15 20 8 11 1005.7 1005.3 0.0
25/01:19pm 31.3 34.8 25.4 71 4.2 NW 17 26 9 14 1005.6 1005.2 0.0
25/01:00pm 32.6 35.8 24.9 64 5.5 NNW 17 26 9 14 1005.6 1005.2 0.0
25/12:30pm 33.0 35.5 24.5 61 6.0 NNW 19 30 10 16 1005.7 1005.3 0.0
25/12:00pm 33.2 35.7 23.8 57 6.6 N 17 22 9 12 1006.1 1005.7 0.0
25/11:30am 33.7 36.4 23.4 55 7.2 N 15 28 8 15 1006.6 1006.2 0.0

Other formats

Comma delimited format used in spreadsheet applications
http://www.bom.gov.au/fwo/IDW60801/IDW60801.95101.axf

JavaScript Object Notation format (JSON) in row-major order
http://www.bom.gov.au/fwo/IDW60801/IDW60801.95101.json

Data quality

Most of these data are generated automatically and are frequently updated. Quality checks on data are not normally performed. It is possible for incorrect values to appear. Refer to information at About Latest Weather Observations and please check the disclaimer before using these data.